Tracking 19644 objects as of 25-Apr-2019
HD Live streaming from Space Station
objects crossing your sky now

THORAD AGENA D DEB

Track THORAD AGENA D DEB now!
10-day predictions


NORAD ID: 42522
Int'l Code: 1970-025SC
Perigee: 1,011.3 km
Apogee: 1,060.5 km
Inclination: 99.6 °
Period: 105.7 minutes
Semi major axis: 7406 km
RCS: Unknown
Launch date: April 8, 1970
Source: United States (US)
Launch site: AIR FORCE WESTERN TEST RANGE (AFWTR)

Note: This is SATELLITE DEBRIS
aabbcc
Your satellite tracking list
Your tracking list is empty




NASA's NSSDC Master Catalog

Two Line Element Set (TLE):
1 42522U 70025SC  19114.09817222 +.00000165 +00000-0 +27012-3 0  9993
2 42522 099.6098 213.9474 0033229 130.0057 352.0396 13.61914254269240
Source of the keplerian elements: AFSPC